User: anonymous   Login
Location: G�ppingen
(48.7089°N, 9.6563°E)
Time: 20:12:34
(UTC+01:00)
Language:

PicSat - Orbit

View from above orbital plane
View from above orbital plane
View from above satellite
View from above satellite

Ground track
Ground track

The orbit data is extracted from the following two-line orbital elements,

1 43131U 18004W   19081.95474986 +.00001973 +00000-0 +84966-4 0  9993
2 43131 097.4979 150.0693 0009209 191.9502 168.1518 15.23770844066159
Epoch (UTC): 22 March 2019 22:54:50
Eccentricity: 0.0009209
inclination: 97.4979°
perigee height: 488 km
apogee height: 501 km
right ascension of ascending node: 150.0693°
argument of perigee: 191.9502°
revolutions per day: 15.23770844
mean anomaly at epoch: 168.1518°
orbit number at epoch: 6615

The dashed part of the orbit path shows where the satellite is in the earth's shadow,  

DLR